Tracking 29892 objects as of 21-Nov-2024
HD Live streaming from Space Station
objects crossing your sky now

ASTRA 1H

Track ASTRA 1H now!
ASTRA 1H is classified as:


NORAD ID: 25785
Int'l Code: 1999-033A
Perigee: 36,119.0 km
Apogee: 36,220.9 km
Inclination: 9.4 °
Period: 1,455.4 minutes
Semi major axis: 42540 km
RCS: 0.8136 m2 (medium)
Launch date: June 18, 1999
Source: SOCIETE EUROPEENNE DES SATELLITES (SES)
Launch site: TYURATAM MISSILE AND SPACE COMPLEX (TTMTR)

Direct-to-home tv; multimedia; broadcasting; 32 Ku-band for first five years, 28 after; Europe
Your satellite tracking list
Your tracking list is empty




NASA's NSSDC Master Catalog

Two Line Element Set (TLE):
1 25785U 99033A   24325.94688807 -.00000088  00000-0  00000+0 0  9993
2 25785   9.3910  53.3677 0011969 150.3512 216.1416  0.98944621 92796
Source of the keplerian elements: AFSPC